Weather History for KEBG - February, 2012

Change the Weather History Date:

Friday, February 3, 2012

  Actual Average (KMFE) Record (KMFE)
Temperature  
Mean Temperature 79 °F 63 °F  
Max Temperature 87 °F 73 °F 93 °F (2006)
Min Temperature 71 °F 52 °F 19 °F (1888)
Degree Days  
Heating Degree Days 0 5  
Month to date heating degree days 15  
Since 1 July heating degree days 442  
Cooling Degree Days 14 3  
Month to date cooling degree days 7  
Year to date cooling degree days 69  
Growing Degree Days 29 (Base 50)    
Moisture  
Dew Point 67 °F    
Average Humidity 71    
Maximum Humidity 89    
Minimum Humidity 43    
Precipitation  
Precipitation 0.01 in 0.05 in 1.45 in (1986)
Month to date precipitation 0.14  
Year to date precipitation 1.19  
Sea Level Pressure  
Sea Level Pressure 29.90 in    
Wind  
Wind Speed 13 mph (SSE)    
Max Wind Speed 24 mph    
Max Gust Speed 30 mph    
Visibility 9 miles    
Events Thunderstorm    
T = Trace of Precipitation, MM = Missing Value Source: NWS Daily Summary

Daily Weather History Graph

Daily Weather History Graph

Search for Another Location

Airport or City:

Trip Planner

Search our weather history database for the weather conditions in past years. The results will help you decide how hot, cold, wet, or windy it might be!

Date:

Astronomy

Feb. 03, 2012 Rise Set
Actual Time 7:16 AM CST 6:16 PM CST
Civil Twilight 6:52 AM CST 6:40 PM CST
Nautical Twilight 6:24 AM CST 7:08 PM CST
Astronomical Twilight 5:57 AM CST 7:35 PM CST
Moon 2:30 PM CST (2/3) 3:41 AM CST (2/3)
Length of Visible Light 11h 48m
Length of Day
11h 00m
Waxing Gibbous, 82% of the Moon is Illuminated
Feb 3
Waxing Gibbous
Feb 7
Full
Feb 14
Last Quarter
Feb 21
New
Feb 29
First Quarter

Hourly Weather History & Observations

Time (CST) Temp. Heat Index Dew Point Humidity Pressure Visibility Wind Dir Wind Speed Gust Speed Precip Events Conditions
12:15 AM 72.9 °F - 68.2 °F 85% 29.93 in 10.0 mi SE 12.7 mph - N/A   Overcast
12:35 AM 73.0 °F - 68.2 °F 85% 29.93 in 10.0 mi SSE 11.5 mph - N/A   Overcast
12:55 AM 72.9 °F - 68.2 °F 85% 29.92 in 10.0 mi SSE 12.7 mph 18.4 mph N/A   Overcast
1:15 AM 72.7 °F - 68.2 °F 86% 29.91 in 10.0 mi SSE 11.5 mph - N/A   Mostly Cloudy
1:35 AM 72.3 °F - 68.0 °F 86% 29.91 in 10.0 mi SSE 10.4 mph - N/A   Mostly Cloudy
1:55 AM 72.3 °F - 68.2 °F 87% 29.91 in 10.0 mi SSE 11.5 mph - N/A   Overcast
2:15 AM 72.9 °F - 68.4 °F 86% 29.90 in 10.0 mi SSE 11.5 mph - N/A   Overcast
2:35 AM 72.9 °F - 68.4 °F 86% 29.90 in 10.0 mi SSE 12.7 mph - N/A   Overcast
2:55 AM 72.7 °F - 68.4 °F 86% 29.91 in 10.0 mi SSE 10.4 mph 17.3 mph N/A   Mostly Cloudy
3:15 AM 72.1 °F - 68.2 °F 87% 29.90 in 10.0 mi SSE 10.4 mph - N/A   Clear
3:35 AM 71.6 °F - 68.0 °F 88% 29.90 in 10.0 mi SSE 10.4 mph - N/A   Clear
3:55 AM 71.8 °F - 68.0 °F 88% 29.90 in 10.0 mi SSE 10.4 mph - N/A   Clear
4:35 AM 72.0 °F - 68.0 °F 87% 29.88 in 10.0 mi SSE 13.8 mph - N/A   Clear
4:55 AM 72.1 °F - 68.2 °F 87% 29.90 in 10.0 mi SSE 12.7 mph - N/A   Scattered Clouds
5:15 AM 72.5 °F - 68.2 °F 86% 29.90 in 10.0 mi SSE 11.5 mph - N/A Thunderstorm Clear
5:35 AM 72.3 °F - 68.2 °F 87% 29.88 in 10.0 mi SE 13.8 mph - N/A   Light Drizzle
5:55 AM 72.0 °F - 68.4 °F 88% 29.87 in 10.0 mi ESE 16.1 mph - N/A   Light Drizzle
6:15 AM 72.1 °F - 68.7 °F 89% 29.90 in 7.0 mi SE 8.1 mph - N/A   Light Drizzle
6:35 AM 72.3 °F - 68.9 °F 89% 29.92 in 10.0 mi SSE 6.9 mph - N/A   Overcast
6:55 AM 72.5 °F - 68.7 °F 88% 29.93 in 10.0 mi SE 8.1 mph - N/A   Mostly Cloudy
7:15 AM 72.1 °F - 68.4 °F 88% 29.94 in 7.0 mi SE 4.6 mph - N/A   Mostly Cloudy
7:35 AM 72.1 °F - 68.7 °F 89% 29.94 in 5.0 mi SE 8.1 mph - N/A   Overcast
7:55 AM 72.5 °F - 68.9 °F 88% 29.95 in 7.0 mi ESE 6.9 mph - 0.01 in   Overcast
8:15 AM 72.9 °F - 69.3 °F 88% 29.95 in 7.0 mi SE 8.1 mph - N/A   Overcast
8:35 AM 73.4 °F - 69.6 °F 88% 29.96 in 7.0 mi SE 6.9 mph - N/A   Overcast
8:55 AM 74.3 °F - 69.8 °F 86% 29.96 in 10.0 mi SE 11.5 mph - N/A   Mostly Cloudy
9:15 AM 75.6 °F - 69.3 °F 81% 29.96 in 10.0 mi SSE 12.7 mph 17.3 mph N/A   Mostly Cloudy
9:35 AM 76.3 °F - 68.9 °F 78% 29.97 in 10.0 mi SSE 15.0 mph - N/A   Overcast
10:15 AM 78.1 °F - 68.4 °F 72% 29.97 in 10.0 mi SE 19.6 mph 24.2 mph N/A   Mostly Cloudy
10:35 AM 78.8 °F - 68.0 °F 69% 29.97 in 10.0 mi South 15.0 mph 24.2 mph N/A   Mostly Cloudy
11:15 AM 81.5 °F 83.9 °F 66.7 °F 61% 29.95 in 10.0 mi SSE 16.1 mph 25.3 mph N/A   Mostly Cloudy
11:35 AM 82.6 °F 84.9 °F 66.2 °F 58% 29.94 in 10.0 mi South 20.7 mph 25.3 mph N/A   Scattered Clouds
12:15 PM 84.2 °F 86.1 °F 65.3 °F 53% 29.91 in 7.0 mi SSE 17.3 mph 29.9 mph N/A   Scattered Clouds
12:35 PM 84.4 °F 86.1 °F 65.1 °F 52% 29.90 in 7.0 mi SSE 17.3 mph - N/A   Mostly Cloudy
12:55 PM 85.5 °F 86.6 °F 63.9 °F 48% 29.88 in 7.0 mi SSE 21.9 mph 27.6 mph N/A   Scattered Clouds
1:15 PM 86.5 °F 87.6 °F 63.7 °F 46% 29.87 in 7.0 mi SSE 18.4 mph 26.5 mph N/A   Scattered Clouds
1:35 PM 86.5 °F 87.3 °F 63.1 °F 45% 29.86 in 7.0 mi SSE 19.6 mph 26.5 mph N/A   Scattered Clouds
1:55 PM 86.4 °F 87.0 °F 63.0 °F 45% 29.85 in 7.0 mi SSE 18.4 mph 27.6 mph N/A   Scattered Clouds
2:15 PM 87.1 °F 87.5 °F 62.1 °F 43% 29.84 in 7.0 mi SSE 24.2 mph 29.9 mph N/A   Scattered Clouds
2:35 PM 86.7 °F 87.3 °F 62.4 °F 44% 29.84 in 7.0 mi South 19.6 mph 25.3 mph N/A   Scattered Clouds
2:55 PM 87.1 °F 87.8 °F 62.6 °F 44% 29.84 in 7.0 mi South 19.6 mph 27.6 mph N/A   Scattered Clouds
3:15 PM 87.1 °F 87.8 °F 63.0 °F 44% 29.83 in 7.0 mi SSE 20.7 mph 26.5 mph N/A   Scattered Clouds
3:35 PM 86.5 °F 87.6 °F 63.3 °F 46% 29.83 in 7.0 mi SSE 19.6 mph 25.3 mph N/A   Scattered Clouds
3:55 PM 86.4 °F 87.6 °F 63.7 °F 47% 29.83 in 7.0 mi South 17.3 mph 23.0 mph N/A   Scattered Clouds
4:15 PM 86.0 °F 87.1 °F 63.5 °F 47% 29.83 in 7.0 mi SSE 19.6 mph 28.8 mph N/A   Clear
4:35 PM 85.3 °F 86.1 °F 63.0 °F 47% 29.84 in 7.0 mi South 16.1 mph 25.3 mph N/A   Clear
4:55 PM 84.2 °F 85.4 °F 63.5 °F 50% 29.84 in 7.0 mi SSE 17.3 mph 24.2 mph N/A   Clear
5:15 PM 84.2 °F 85.6 °F 64.0 °F 51% 29.84 in 10.0 mi SSE 19.6 mph 26.5 mph N/A   Clear
5:35 PM 83.3 °F 84.8 °F 64.4 °F 53% 29.85 in 10.0 mi SSE 16.1 mph 23.0 mph N/A   Clear
5:55 PM 81.5 °F 83.3 °F 64.8 °F 57% 29.85 in 10.0 mi SSE 15.0 mph 19.6 mph N/A   Clear
6:15 PM 80.8 °F 82.5 °F 64.9 °F 58% 29.86 in 10.0 mi SSE 11.5 mph 18.4 mph N/A   Clear
6:35 PM 79.3 °F - 65.8 °F 63% 29.87 in 10.0 mi SSE 10.4 mph 19.6 mph N/A   Clear
6:55 PM 78.3 °F - 66.0 °F 66% 29.88 in 10.0 mi SSE 9.2 mph - N/A   Clear
7:15 PM 77.9 °F - 65.5 °F 65% 29.89 in 10.0 mi SSE 9.2 mph - N/A   Clear
7:35 PM 76.8 °F - 65.7 °F 68% 29.90 in 10.0 mi SE 10.4 mph - N/A   Clear
7:55 PM 76.1 °F - 66.4 °F 72% 29.90 in 10.0 mi SE 10.4 mph - N/A   Clear
8:15 PM 75.7 °F - 67.1 °F 74% 29.91 in 10.0 mi SE 12.7 mph - N/A   Clear
8:35 PM 75.2 °F - 67.8 °F 78% 29.91 in 10.0 mi SE 11.5 mph - N/A   Scattered Clouds
8:55 PM 74.8 °F - 68.2 °F 80% 29.92 in 10.0 mi SSE 11.5 mph - N/A   Scattered Clouds
9:15 PM 74.5 °F - 68.4 °F 81% 29.92 in 10.0 mi SSE 10.4 mph - N/A   Scattered Clouds
9:35 PM 74.3 °F - 68.4 °F 82% 29.93 in 10.0 mi SSE 10.4 mph - N/A   Scattered Clouds
9:55 PM 73.9 °F - 68.5 °F 83% 29.93 in 7.0 mi SE 9.2 mph - N/A   Scattered Clouds
10:15 PM 73.8 °F - 68.7 °F 84% 29.94 in 7.0 mi SE 10.4 mph 16.1 mph N/A   Overcast
10:35 PM 74.1 °F - 68.9 °F 84% 29.94 in 7.0 mi SSE 11.5 mph - N/A   Overcast
10:55 PM 74.3 °F - 68.9 °F 83% 29.94 in 7.0 mi SSE 11.5 mph 17.3 mph N/A   Overcast
11:15 PM 74.5 °F - 68.9 °F 83% 29.94 in 7.0 mi SE 11.5 mph 18.4 mph N/A   Overcast
11:35 PM 74.3 °F - 68.9 °F 83% 29.94 in 7.0 mi SE 10.4 mph - N/A   Overcast
11:55 PM 73.9 °F - 68.7 °F 84% 29.95 in 7.0 mi SSE 8.1 mph - N/A   Mostly Cloudy